287  
NZUS01 KOTX 192325  
RWROTX  
 
EASTERN WASHINGTON/NORTHERN IDAHO ROUNDUP  
NATIONAL WEATHER SERVICE, SPOKANE WA  
400 PM PDT SUN MAY 19 2019  
 
NOTE: "FAIR" INDICATED FEW OR NO CLOUDS BELOW 12,000 FEET WITH NO  
SIGNIFICANT WEATHER AND/OR S TO VISIBILITY
.  
   
..NORTHEAST WASHINGTON AND NORTHERN IDAHO PANHANDLE
 
 
 
CITY SKY/WX TMP DP RH WIND PRES REMARKS
 
SPOKANE INTL MOSUNNY 65 38 36 NE22 29.68F  
SPOKANE DOWNTO SUNNY 67 38 34 E20G29 29.68F  
COEUR D ALENE MOSUNNY 63 39 41 NE20G25 29.72S  
DEER PARK MOSUNNY 64 38 38 NE22G28 29.72F  
SANDPOINT CLOUDY 59 34 38 N18G30 29.78S  
BONNERS FERRY CLOUDY 55 36 47 NE14 29.85R  
   
..SOUTHEAST WASHINGTON AND SOUTHERN IDAHO PANHANDLE
 
 
 
CITY SKY/WX TMP DP RH WIND PRES REMARKS
 
WALLA WALLA PTSUNNY 70 50 49 SE3 29.56F  
PULLMAN/MOSCOW PTSUNNY 67 44 43 NE20 29.61F  
LEWISTON CLOUDY 74 43 32 VRB3 29.54F  
LOWELL N/A 69 41 36 N8 29.55S  
GRANGEVILLE CLOUDY 59 43 55 NE14G20 29.57F  
   
..COLUMBIA BASIN
 
 
 
CITY SKY/WX TMP DP RH WIND PRES REMARKS
 
EPHRATA SUNNY 74 39 28 NE13 29.64F  
MOSES LAKE MOSUNNY 76 40 27 N17G23 29.64F  
PASCO PTSUNNY 79 44 28 N17 29.57F  
RICHLAND MOCLDY 78 43 28 N13G20 29.58F  
HERMISTON CLOUDY 71 48 43 W8 29.58F  
PENDLETON CLOUDY 65 48 54 NW10 29.59F  
   
..EAST SLOPES CASCADES
 
 
 
CITY SKY/WX TMP DP RH WIND PRES REMARKS
 
THE DALLES CLOUDY 62 53 72 NW8 29.67F  
YAKIMA PTSUNNY 68 43 40 NW5 29.65F  
ELLENSBURG MOSUNNY 71 43 36 VRB5 29.66F  
STAMPEDE PASS CLOUDY 55 39 54 VRB3 29.74S  
WENATCHEE PTSUNNY 70 39 32 W8 29.65F  
WINTHROP FAIR 71 39 31 S3 29.67F  
OMAK PTSUNNY 73 41 31 N13 29.66F  
SUNNYSIDE CLOUDY 69 49 48 N9G16 29.61F  
   
..SOUTHERN BRITISH COLUMBIA
 
 
 
CITY SKY/WX TMP DP RH WIND PRES REMARKS
 
PENTICTON PTSUNNY 66 41 39 NW7 29.71F  
CASTLEGAR PTSUNNY 64 36 34 N12 29.77S  
CRANBROOK PTSUNNY 55 30 38 E9 29.93S  
OSOYOOS N/A 73 45 35 NW7 N/A  
CRESTON N/A 57 32 38 E10G20 N/A  
   
..WESTERN MONTANA
 
 
 
CITY SKY/WX TMP DP RH WIND PRES REMARKS
 
KALISPELL CLOUDY 52 30 43 NE22G31 29.87F  
MISSOULA CLOUDY 54 31 41 E23G31 29.80S  
   
..NEIGHBORING CITIES
 
 
 
CITY SKY/WX TMP DP RH WIND PRES REMARKS
 
SEATTLE MOSUNNY 69 49 48 VRB6 29.72F  
PORTLAND CLOUDY 63 48 58 W9 29.75S  
BOISE CLOUDY 54 49 83 SE10 29.55S  
GREAT FALLS MOSUNNY 47 32 56 E21G32 29.94S  
CALGARY PTSUNNY 48 27 43 SE15G21 30.05F  
 
CLICK HERE TO GO TO PREVIOUS BULLETINS.

The Nexlab WA Page
The Nexlab ID Page Main Text Page